EST,Max TemperatureF,Mean TemperatureF,Min TemperatureF,Max Dew PointF,MeanDew PointF,Min DewpointF,Max Humidity, Mean Humidity, Min Humidity, Max Sea Level PressureIn, Mean Sea Level PressureIn, Min Sea Level PressureIn, Max VisibilityMiles, Mean VisibilityMiles, Min VisibilityMiles, Max Wind SpeedMPH, Mean Wind SpeedMPH, Max Gust SpeedMPH,PrecipitationIn, CloudCover, Events, WindDirDegrees
2013-2-1,22,15,8,19,4,-1,89,64,52,30.38,30.27,29.91,10,9,2,22,12,32,0.00,3,Snow,256
2013-2-2,28,18,8,27,16,4,95,84,75,30.34,30.13,29.99,10,7,1,14,3,20,0.00,6,Snow,202
2013-2-3,27,24,22,25,19,10,93,78,56,30.11,29.97,29.90,10,9,2,18,7,24,0.00,8,Snow,249
2013-2-4,32,22,13,32,21,10,98,83,65,30.11,29.98,29.86,10,8,0,10,4,16,0.00,7,Snow,188
2013-2-5,35,34,32,33,31,29,99,92,79,29.98,29.89,29.85,10,5,1,10,2,13,0.00,8,,278
2013-2-6,35,28,22,30,26,21,93,78,64,30.29,30.20,29.99,10,9,5,8,3,,0.00,6,,319
2013-2-7,54,38,22,35,29,21,93,70,41,30.27,30.08,29.89,10,8,5,8,2,,0.00,3,,101
2013-2-8,43,36,28,39,30,20,94,78,70,30.28,30.00,29.79,10,10,7,20,8,28,0.00,7,Rain,280
2013-2-9,37,30,23,22,18,15,84,64,40,30.42,30.35,30.29,10,10,10,10,4,16,0.00,3,,347
2013-2-10,55,38,21,41,26,18,89,66,29,30.29,30.11,29.88,10,10,5,15,2,23,0.00,4,Rain,169
2013-2-11,58,50,41,47,35,25,87,61,34,30.02,29.86,29.80,10,10,7,26,10,39,0.00,3,Rain,230
2013-2-12,49,39,29,26,24,20,83,58,33,30.13,30.03,29.91,10,10,10,17,8,25,0.00,1,,257
2013-2-13,37,32,26,32,27,22,98,86,64,29.91,29.81,29.72,10,7,0,9,2,,0.00,6,Snow,299
2013-2-14,49,38,26,37,31,25,96,82,54,29.97,29.92,29.86,10,8,2,12,4,18,0.00,4,,202
2013-2-15,38,34,29,32,30,23,94,86,75,30.10,30.04,29.97,10,9,2,15,3,18,0.00,6,Rain-Snow,276
2013-2-16,32,26,19,23,17,10,94,72,43,30.10,30.04,29.97,10,10,1,16,3,24,0.00,4,Snow,290
2013-2-17,27,20,12,14,7,3,87,61,39,30.26,30.17,30.05,10,10,3,15,8,22,0.00,2,Snow,284
2013-2-18,53,32,11,31,19,8,88,59,37,30.27,30.10,29.82,10,10,10,13,3,20,0.00,1,,167
2013-2-19,48,37,26,38,27,14,89,67,42,30.06,29.86,29.73,10,10,7,25,14,39,0.00,8,Rain-Snow,243
2013-2-20,27,23,18,17,13,10,83,64,53,30.29,30.19,30.06,10,9,1,17,12,23,0.00,7,Snow,287
2013-2-21,32,26,19,18,15,11,75,64,50,30.36,30.27,30.20,10,10,10,12,4,,0.00,5,Snow,25
2013-2-22,53,40,27,44,32,17,94,84,63,30.17,29.99,29.92,10,9,5,12,6,16,0.00,8,Snow,67
2013-2-23,47,36,26,36,32,24,94,76,47,29.98,29.92,29.87,10,8,4,9,1,,0.00,4,,265
2013-2-24,39,30,21,25,21,18,94,73,46,30.17,30.06,29.91,10,10,7,14,3,21,0.00,2,,306
2013-2-25,44,30,17,23,19,15,92,67,37,30.20,30.11,29.97,10,10,7,13,2,18,0.00,0,,75
2013-2-26,44,36,28,42,34,21,95,82,57,29.97,29.66,29.48,10,9,1,14,7,23,0.00,7,Rain,86
2013-2-27,43,38,33,40,34,29,91,84,71,29.73,29.66,29.54,10,10,4,17,8,26,0.00,8,Rain-Snow,225
2013-2-28,35,34,32,33,31,28,93,89,83,29.89,29.76,29.68,10,8,2,17,8,21,0.00,8,Rain-Snow,249